EW0059 Weather Reports


time (UTC)temp
C
wind
direction
speed
KPH
gust
KPH
rain 1hr
cm
rain 24hr
cm
rain mn
cm
humidity
%
barometer
mb
20260505224534 17 242 3.2 16.1 0.00 0.00 0.00 70 1015.1
20260505224023 17 332 8.0 14.5 0.00 0.00 0.00 68 1015.2
20260505223534 17 137 3.2 14.5 0.00 0.00 0.00 69 1015.1
20260505223025 17 320 6.4 14.5 0.00 0.00 0.00 69 1015.2
20260505222556 17 342 6.4 14.5 0.00 0.00 0.00 68 1015.2
20260505222026 17 11 3.2 12.9 0.00 0.00 0.00 70 1015.2
20260505221523 17 323 6.4 16.1 0.00 0.00 0.00 69 1015.2
20260505221034 17 252 6.4 16.1 0.00 0.00 0.00 69 1015.2
20260505220524 17 313 4.8 12.9 0.00 0.00 0.00 69 1015.2
20260505220050 17 260 1.6 16.1 0.00 0.00 0.00 67 1015.2
20260505215545 17 306 4.8 16.1 0.00 0.00 0.00 68 1015.2
20260505215017 17 279 1.6 14.5 0.00 0.00 0.00 69 1015.3
20260505214528 17 289 4.8 14.5 0.00 0.00 0.00 69 1015.3
20260505214039 17 254 4.8 17.7 0.00 0.00 0.00 69 1015.3
20260505213530 17 43 4.8 17.7 0.00 0.00 0.00 69 1015.2
20260505213026 18 260 6.4 17.7 0.00 0.00 0.00 67 1015.2
20260505212518 18 252 4.8 11.3 0.00 0.00 0.00 70 1015.3
20260505212029 17 205 3.2 11.3 0.00 0.00 0.00 71 1015.3
20260505211520 17 234 1.6 11.3 0.00 0.00 0.00 70 1015.3
20260505211031 17 338 1.6 16.1 0.00 0.00 0.00 69 1015.2
20260505210522 18 5 1.6 16.1 0.00 0.00 0.00 66 1015.3
20260505210047 18 296 4.8 16.1 0.00 0.00 0.00 69 1015.2
20260505205522 17 345 1.6 12.9 0.00 0.00 0.00 68 1015.3
20260505205033 17 334 3.2 19.3 0.00 0.00 0.00 70 1015.3
20260505204544 17 322 3.2 19.3 0.00 0.00 0.00 70 1015.3
20260505204018 17 286 1.6 9.7 0.00 0.00 0.00 69 1015.4
20260505203529 18 275 3.2 12.9 0.00 0.00 0.00 69 1015.3
20260505203041 18 254 6.4 12.9 0.00 0.00 0.00 67 1015.3
20260505202532 18 350 3.2 11.3 0.00 0.00 0.00 70 1015.2
20260505202024 18 260 6.4 11.3 0.00 0.00 0.00 69 1015.3
20260505201516 18 311 3.2 11.3 0.00 0.00 0.00 67 1015.3
20260505201024 19 294 3.2 9.7 0.00 0.00 0.00 68 1015.3
20260505200554 19 39 3.2 8.0 0.00 0.00 0.00 65 1015.3
20260505200040 18 330 1.6 8.0 0.00 0.00 0.00 68 1015.3
20260505195529 18 12 1.6 9.7 0.00 0.00 0.00 68 1015.3
20260505195023 18 301 3.2 9.7 0.00 0.00 0.00 67 1015.3
20260505194515 17 321 3.2 9.7 0.00 0.00 0.00 69 1015.3
20260505194023 17 21 3.2 9.7 0.00 0.00 0.00 67 1015.3
20260505193523 18 306 4.8 9.7 0.00 0.00 0.00 67 1015.3
20260505193034 18 312 0.0 8.0 0.00 0.00 0.00 71 1015.3
20260505192546 17 351 1.6 6.4 0.00 0.00 0.00 70 1015.4
20260505192033 17 39 0.0 8.0 0.00 0.00 0.00 70 1015.3
20260505191544 17 132 3.2 8.0 0.00 0.00 0.00 67 1015.3
20260505191035 16 138 1.6 4.8 0.00 0.00 0.00 71 1015.4
20260505190525 16 321 0.0 4.8 0.00 0.00 0.00 72 1015.4
20260505190051 16 306 0.0 4.8 0.00 0.00 0.00 75 1015.4
20260505185527 16 186 0.0 4.8 0.00 0.00 0.00 71 1015.4
20260505185022 16 256 1.6 4.8 0.00 0.00 0.00 71 1015.4
20260505184534 16 278 1.6 3.2 0.00 0.00 0.00 72 1015.4
20260505184024 16 232 0.0 4.8 0.00 0.00 0.00 74 1015.4
20260505183516 15 232 0.0 8.0 0.00 0.00 0.00 72 1015.4
20260505183027 15 288 1.6 8.0 0.00 0.00 0.00 72 1015.5
20260505182518 15 263 1.6 8.0 0.00 0.00 0.00 72 1015.4
20260505182029 15 315 1.6 9.7 0.00 0.00 0.00 73 1015.4
20260505181519 15 280 1.6 9.7 0.00 0.00 0.00 77 1015.3
20260505181051 15 294 1.6 4.8 0.00 0.00 0.00 76 1015.3
20260505180522 15 360 1.6 4.8 0.00 0.00 0.00 73 1015.3
20260505180053 15 284 1.6 4.8 0.00 0.00 0.00 74 1015.4
20260505175526 15 30 0.0 0.0 0.00 0.00 0.00 74 1015.4
20260505175018 15 124 0.0 0.0 0.00 0.00 0.00 75 1015.3
20260505174530 15 124 0.0 0.0 0.00 0.00 0.00 74 1015.3
20260505174021 15 124 0.0 0.0 0.00 0.00 0.00 76 1015.3
20260505173531 15 104 0.0 0.0 0.00 0.00 0.00 77 1015.4
20260505173023 15 104 0.0 0.0 0.00 0.00 0.00 80 1015.3
20260505172516 14 104 0.0 0.0 0.00 0.00 0.00 80 1015.3
20260505172027 14 104 0.0 0.0 0.00 0.00 0.00 79 1015.3
20260505171523 14 104 0.0 0.0 0.00 0.00 0.00 77 1015.3
20260505171054 14 104 0.0 0.0 0.00 0.00 0.00 81 1015.3
20260505170545 14 104 0.0 0.0 0.00 0.00 0.00 81 1015.2
20260505170050 14 330 0.0 0.0 0.00 0.00 0.00 81 1015.2
20260505165525 14 330 0.0 0.0 0.00 0.00 0.00 81 1015.2
20260505165017 13 329 0.0 1.6 0.00 0.00 0.00 82 1015.2
20260505164548 13 330 0.0 1.6 0.00 0.00 0.00 82 1015.3
20260505164019 13 311 0.0 0.0 0.00 0.00 0.00 83 1015.3
20260505163530 13 311 0.0 0.0 0.00 0.00 0.00 82 1015.2
20260505163038 13 311 0.0 0.0 0.00 0.00 0.00 82 1015.2
20260505162529 13 13 0.0 0.0 0.00 0.00 0.00 82 1015.2
20260505162025 13 25 0.0 0.0 0.00 0.00 0.00 83 1015.3
20260505161537 13 25 0.0 0.0 0.00 0.00 0.00 83 1015.3
20260505161027 13 306 0.0 0.0 0.00 0.00 0.00 85 1015.2
20260505160519 12 306 0.0 0.0 0.00 0.00 0.00 83 1015.3
20260505153022 12 80 0.0 0.0 0.00 0.00 0.00 86 1015.3
20260505152532 12 80 0.0 0.0 0.00 0.00 0.00 86 1015.4
20260505152024 12 80 0.0 0.0 0.00 0.00 0.00 86 1015.4
20260505151535 12 80 0.0 0.0 0.00 0.00 0.00 86 1015.4
20260505151027 12 80 0.0 0.0 0.00 0.00 0.00 87 1015.3
20260505150518 12 80 0.0 0.0 0.00 0.00 0.00 88 1015.3
20260505140531 12 67 0.0 0.0 0.00 0.00 0.00 91 1015.1
20260505125030 11 61 0.0 0.0 0.00 0.00 0.00 90 1014.7
20260505124523 11 61 0.0 0.0 0.00 0.00 0.00 90 1014.6
20260505124033 11 61 0.0 0.0 0.00 0.00 0.00 90 1014.6
20260505123546 11 61 0.0 0.0 0.00 0.00 0.00 89 1014.6
20260505123016 11 61 0.0 0.0 0.00 0.00 0.00 90 1014.6
20260505122532 12 61 0.0 0.0 0.00 0.00 0.00 90 1014.6
20260505121525 12 61 0.0 0.0 0.00 0.00 0.00 89 1014.6
20260505121037 12 61 0.0 0.0 0.00 0.00 0.00 89 1014.6
20260505120549 12 61 0.0 0.0 0.00 0.00 0.00 89 1014.5
20260505120033 12 61 0.0 0.0 0.00 0.00 0.00 89 1014.5
20260505115528 12 61 0.0 0.0 0.00 0.00 0.00 89 1014.5
20260505115020 12 61 0.0 0.0 0.00 0.00 0.00 90 1014.4
20260505114532 12 61 0.0 0.0 0.00 0.00 0.00 89 1014.4
20260505114022 12 61 0.0 0.0 0.00 0.00 0.00 89 1014.3
20260505113531 12 61 0.0 0.0 0.00 0.00 0.00 89 1014.4
20260505113023 12 61 0.0 0.0 0.00 0.00 0.00 89 1014.3
20260505112519 12 61 0.0 0.0 0.00 0.00 0.00 89 1014.3
20260505112030 12 61 0.0 0.0 0.00 0.00 0.00 89 1014.3
20260505111544 12 61 0.0 0.0 0.00 0.00 0.00 89 1014.3
20260505111054 12 61 0.0 0.0 0.00 0.00 0.00 89 1014.2
20260505110524 12 61 0.0 0.0 0.00 0.00 0.00 88 1014.2
20260505102030 12 61 0.0 0.0 0.00 0.00 0.00 88 1014.1
20260505101541 12 61 0.0 0.0 0.00 0.00 0.00 89 1014.1
20260505101029 12 61 0.0 0.0 0.00 0.00 0.00 88 1014.0
20260505100519 12 61 0.0 0.0 0.00 0.00 0.00 89 1014.0
20260505100044 12 61 0.0 0.0 0.00 0.00 0.00 89 1014.1
20260505095518 12 61 0.0 0.0 0.00 0.00 0.00 89 1014.1
20260505095029 12 61 0.0 0.0 0.00 0.00 0.00 88 1014.1
20260505094520 12 61 0.0 0.0 0.00 0.00 0.00 88 1014.1
20260505094051 12 61 0.0 0.0 0.00 0.00 0.00 88 1014.1
20260505093526 12 61 0.0 0.0 0.00 0.00 0.00 88 1014.1
20260505093018 12 61 0.0 0.0 0.00 0.00 0.00 88 1014.1
20260505092529 12 61 0.0 0.0 0.00 0.00 0.00 88 1014.1
20260505092019 12 61 0.0 0.0 0.00 0.00 0.00 88 1014.1
20260505091531 12 61 0.0 0.0 0.00 0.00 0.00 88 1014.1
20260505091042 12 61 0.0 0.0 0.00 0.00 0.00 88 1014.2
20260505090553 12 61 0.0 0.0 0.00 0.00 0.00 88 1014.2
20260505090057 12 61 0.0 0.0 0.00 0.00 0.00 88 1014.2
20260505085529 12 61 0.0 0.0 0.00 0.00 0.00 88 1014.2
20260505085020 12 61 0.0 0.0 0.00 0.00 0.00 88 1014.3
20260505084530 12 61 0.0 0.0 0.00 0.00 0.00 88 1014.3
20260505084042 12 61 0.0 0.0 0.00 0.00 0.00 88 1014.3
20260505083517 12 61 0.0 0.0 0.00 0.00 0.00 88 1014.3
20260505083028 12 61 0.0 0.0 0.00 0.00 0.00 88 1014.2
20260505082520 12 61 0.0 0.0 0.00 0.00 0.00 88 1014.3
20260505082031 12 61 0.0 0.0 0.00 0.00 0.00 87 1014.3
20260505081523 12 61 0.0 0.0 0.00 0.00 0.00 88 1014.3
20260505081054 12 61 0.0 0.0 0.00 0.00 0.00 87 1014.3
20260505080525 12 61 0.0 0.0 0.00 0.00 0.00 88 1014.3
20260505080031 12 61 0.0 0.0 0.00 0.00 0.00 87 1014.3
20260505075527 12 61 0.0 0.0 0.00 0.00 0.00 88 1014.3
20260505075019 12 61 0.0 0.0 0.00 0.00 0.00 88 1014.4
20260505074530 12 61 0.0 0.0 0.00 0.00 0.00 88 1014.4
20260505074022 12 61 0.0 0.0 0.00 0.00 0.00 88 1014.5
20260505073534 12 61 0.0 0.0 0.00 0.00 0.00 88 1014.5
20260505073024 12 61 0.0 0.0 0.00 0.00 0.00 88 1014.5
20260505072516 12 61 0.0 0.0 0.00 0.00 0.00 87 1014.5
20260505072030 12 61 0.0 0.0 0.00 0.00 0.00 87 1014.5
20260505071522 12 61 0.0 0.0 0.00 0.00 0.00 88 1014.5
20260505071017 12 61 0.0 0.0 0.00 0.00 0.00 87 1014.5
20260505070527 12 61 0.0 0.0 0.00 0.00 0.00 87 1014.5
20260505070054 12 61 0.0 0.0 0.00 0.00 0.00 87 1014.5
20260505065528 12 61 0.0 0.0 0.00 0.00 0.00 87 1014.5
20260505065020 12 61 0.0 0.0 0.00 0.00 0.00 87 1014.5
20260505064531 12 61 0.0 0.0 0.00 0.00 0.00 88 1014.5
20260505064023 12 61 0.0 0.0 0.00 0.00 0.00 88 1014.6
20260505063530 12 61 0.0 0.0 0.00 0.00 0.00 87 1014.5
20260505063022 12 61 0.0 0.0 0.00 0.00 0.00 87 1014.5
20260505062533 12 61 0.0 0.0 0.00 0.00 0.00 87 1014.4
20260505062045 12 61 0.0 0.0 0.00 0.00 0.00 87 1014.4
20260505061519 12 61 0.0 0.0 0.00 0.00 0.00 86 1014.3
20260505061032 12 61 0.0 0.0 0.00 0.00 0.00 87 1014.3
20260505060520 12 61 0.0 0.0 0.00 0.00 0.00 86 1014.3
20260505060044 12 61 0.0 0.0 0.00 0.00 0.00 87 1014.4
20260505055520 12 61 0.0 0.0 0.00 0.00 0.00 86 1014.4
20260505055031 12 61 0.0 0.0 0.00 0.00 0.00 86 1014.4
20260505054522 12 61 0.0 0.0 0.00 0.00 0.00 86 1014.4
20260505054034 12 61 0.0 0.0 0.00 0.00 0.00 86 1014.3
20260505053547 12 61 0.0 0.0 0.00 0.00 0.00 86 1014.3
20260505053022 12 61 0.0 0.0 0.00 0.00 0.00 86 1014.3
20260505052532 12 61 0.0 0.0 0.00 0.00 0.00 85 1014.2
20260505052024 12 61 0.0 0.0 0.00 0.00 0.00 85 1014.2
20260505051515 12 61 0.0 0.0 0.00 0.00 0.00 85 1014.3
20260505051047 12 61 0.0 0.0 0.00 0.00 0.00 85 1014.3
20260505050518 13 61 0.0 0.0 0.00 0.00 0.00 85 1014.3
20260505041548 13 61 0.0 0.0 0.00 0.00 0.00 83 1013.8
20260505041019 13 61 0.0 0.0 0.00 0.00 0.00 83 1013.8
20260505040551 13 61 0.0 0.0 0.00 0.00 0.00 82 1013.8
20260505040036 13 61 0.0 0.0 0.00 0.00 0.00 83 1013.8
20260505035529 13 61 0.0 0.0 0.00 0.00 0.00 83 1013.6
20260505035020 13 61 0.0 0.0 0.00 0.00 0.00 82 1013.5
20260505034550 13 61 0.0 0.0 0.00 0.00 0.00 82 1013.5
20260505034040 13 61 0.0 0.0 0.00 0.00 0.00 81 1013.5
20260505033530 13 61 0.0 1.6 0.00 0.00 0.00 83 1013.5
20260505033025 13 61 0.0 1.6 0.00 0.00 0.00 82 1013.4
20260505032516 13 61 0.0 0.0 0.00 0.00 0.00 81 1013.4
20260505032028 13 345 0.0 0.0 0.00 0.00 0.00 80 1013.3
20260505031519 13 345 0.0 0.0 0.00 0.00 0.00 81 1013.2
20260505031030 13 345 0.0 4.8 0.00 0.00 0.00 81 1013.1
20260505030522 14 345 0.0 4.8 0.00 0.00 0.00 80 1013.2
20260505030045 14 350 0.0 3.2 0.00 0.00 0.00 81 1013.1
20260505025540 14 293 0.0 1.6 0.00 0.00 0.00 80 1013.1
20260505025030 14 318 0.0 1.6 0.00 0.00 0.00 79 1013.1
20260505024545 14 29 0.0 1.6 0.00 0.00 0.00 80 1013.1
20260505024015 15 271 0.0 1.6 0.00 0.00 0.00 80 1013.1
20260505023527 15 267 0.0 4.8 0.00 0.00 0.00 80 1013.0
20260505023018 15 267 0.0 4.8 0.00 0.00 0.00 78 1012.9
20260505022529 15 331 0.0 1.6 0.00 0.00 0.00 79 1012.9
20260505022019 15 331 0.0 3.2 0.00 0.00 0.00 79 1012.8
20260505021530 15 311 0.0 3.2 0.00 0.00 0.00 78 1012.8
20260505021021 15 313 0.0 3.2 0.00 0.00 0.00 78 1012.8
20260505020533 15 313 0.0 3.2 0.00 0.00 0.00 77 1012.8
20260505020041 15 15 0.0 3.2 0.00 0.00 0.00 77 1012.8
20260505015520 15 15 0.0 3.2 0.00 0.00 0.00 75 1012.8
20260505015032 15 51 0.0 1.6 0.00 0.00 0.00 76 1012.7
20260505014543 15 288 0.0 3.2 0.00 0.00 0.00 75 1012.7
20260505014053 15 289 0.0 4.8 0.00 0.00 0.00 75 1012.7
20260505013523 15 326 1.6 6.4 0.00 0.00 0.00 74 1012.7
20260505013015 15 322 1.6 6.4 0.00 0.00 0.00 75 1012.7
20260505012545 15 287 1.6 9.7 0.00 0.00 0.00 74 1012.7
20260505012016 15 261 3.2 9.7 0.00 0.00 0.00 74 1012.8
20260505011548 16 181 1.6 8.0 0.00 0.00 0.00 74 1012.9
20260505011017 16 213 0.0 8.0 0.00 0.00 0.00 74 1012.9
20260505010528 16 288 3.2 8.0 0.00 0.00 0.00 73 1012.9
20260505010038 16 220 1.6 9.7 0.00 0.00 0.00 73 1012.8
20260505005533 16 330 3.2 9.7 0.00 0.00 0.00 73 1012.8
20260505005024 16 184 3.2 11.3 0.00 0.00 0.00 73 1012.8
20260505004516 16 309 1.6 11.3 0.00 0.00 0.00 73 1012.8
20260505004027 16 360 0.0 11.3 0.00 0.00 0.00 73 1012.8
20260505003517 16 5 1.6 11.3 0.00 0.00 0.00 73 1012.8
20260505003028 16 338 1.6 9.7 0.00 0.00 0.00 73 1012.9
20260505002521 16 304 3.2 12.9 0.00 0.00 0.00 74 1012.8
20260505002052 16 200 1.6 12.9 0.00 0.00 0.00 75 1012.9
20260505001525 16 238 3.2 11.3 0.00 0.00 0.00 73 1013.0
20260505001018 16 113 1.6 11.3 0.00 0.00 0.00 73 1013.1
20260505000530 16 5 1.6 11.3 0.00 0.00 0.00 75 1013.1
20260505000037 16 306 3.2 9.7 0.00 0.00 0.00 74 1013.1
20260504235552 16 234 1.6 9.7 0.00 0.00 0.00 72 1013.1
20260504235023 17 271 1.6 6.4 0.00 0.00 0.00 73 1013.2
20260504234515 17 251 0.0 6.4 0.00 0.00 0.00 73 1013.2
20260504234026 17 24 0.0 11.3 0.00 0.00 0.00 74 1013.2
20260504233539 17 327 1.6 11.3 0.00 0.00 0.00 74 1013.2
20260504233029 16 265 1.6 11.3 0.00 0.00 0.00 75 1013.3
20260504232524 16 219 3.2 11.3 0.00 0.00 0.00 74 1013.3
20260504232034 16 5 1.6 11.3 0.00 0.00 0.00 73 1013.3
20260504231545 16 330 4.8 11.3 0.00 0.00 0.00 74 1013.4
20260504231035 16 49 0.0 9.7 0.00 0.00 0.00 74 1013.3
20260504230526 16 292 4.8 9.7 0.00 0.00 0.00 72 1013.4
20260504230051 17 47 1.6 6.4 0.00 0.00 0.00 73 1013.4
20260504225525 17 267 3.2 9.7 0.00 0.00 0.00 73 1013.4
20260504225037 17 225 1.6 11.3 0.00 0.00 0.00 76 1013.4